Flag for Germany Weather past 2 weeks in Velbert, North Rhine-Westphalia, Germany

Now
55 °F

Fog.


Feels Like: 55 °F
Forecast: 56 / 74 °F
Wind: 2 mph from East

Location: Essen

Current Time: Sep 3, 2014 at 5:40:46 AM

Latest Report: Sep 3, 2014 at 5:00 AM


Visibility: 2 mi

Pressure: 30.23 "Hg

Humidity: 100%

Dew point: 55 °F

Location of VelbertLocation

Historic Weather in Velbert — Graph

°F

Velbert temperature yesterday

Maximum temperature yesterday: 66 °F (at 1:00 PM)
Minimum temperature yesterday: 60 °F (at 11:00 PM)
Average temperature yesterday: 62 °F

Past Weeks' High & Low Weather Summary

 TemperatureHumidityPressure
High72 °F (Aug 28, 3:00 PM)100% (Aug 25, 10:00 PM)30.24 "Hg (Aug 25, 10:00 PM)
Low47 °F (Aug 21, 7:00 AM)46% (Aug 27, 6:00 PM)29.64 "Hg (Aug 26, 6:00 AM)
Average57 °F84%29.97 "Hg
* Reported Aug 19 4:00 AM — Sep 3 4:00 AM, Velbert, Weather by CustomWeather, © 2014

Note: Actual official high and low records may vary slightly from our data, if they occured in-between our weather recording intervals... More about our weather records

Advertising

Velbert weather history for previous 24 hours

 ConditionsComfort  
Time TempWeatherWind HumidityBarometerVisibility
4:00 AM
Sep 3
56 °FFog.2 mph100%30.23 "Hg2 mi
3:00 AM57 °FFog.3 mph99%30.24 "Hg2 mi
2:00 AM58 °FFog.3 mph99%30.23 "Hg2 mi
1:00 AM59 °FFog.3 mph96%30.23 "Hg3 mi
12:00 AM60 °FFog.3 mph94%30.23 "Hg4 mi
11:00 PM
Sep 2
60 °FPassing clouds.2 mph93%30.23 "Hg5 mi
10:00 PM61 °FPassing clouds.2 mph91%30.23 "Hg6 mi
9:00 PM61 °FPassing clouds.2 mph90%30.22 "Hg6 mi
8:00 PM62 °FSunny.2 mph89%30.20 "Hg5 mi
7:00 PM63 °FPassing clouds.2 mph87%30.20 "Hg6 mi
6:00 PM63 °FOvercast.3 mph83%30.19 "Hg9 mi
5:00 PM63 °FOvercast.3 mph84%30.20 "Hg7 mi
4:00 PM62 °FOvercast.3 mph85%30.20 "Hg6 mi
3:00 PM63 °FOvercast.3 mph81%30.19 "Hg10 mi
2:00 PM63 °FLow clouds.3 mph74%30.19 "Hg19 mi
1:00 PM66 °FOvercast.2 mph67%30.19 "Hg22 mi
Weather by CustomWeather, © 2014

See weather overviewHow to use our weather pages